Regional Weather Roundup
Issued by NWS

Home | Current Version | Previous Version | Text Only | Print | Product List | Glossary Off
Versions: 1 2 3 4 5 6 7 8 9 10 11 12 13 14 15 16 17 18 19 20 21 22 23 24 25 26 27 28 29 30 31 32 33 34 35 36 37 38 39 40 41 42 43 44 45 46 47 48 49 50

000
ASUS43 KLMK 070102
RWRKY
KENTUCKY REGIONAL WEATHER ROUNDUP
NATIONAL WEATHER SERVICE LOUISVILLE KY
800 PM EST TUE DEC 06 2016

NOTE "FAIR" INDICATES FEW OR NO CLOUDS BELOW 12,000 FEET
WITH NO SIGNIFICANT WEATHER AND/OR OBSTRUCTIONS TO VISIBILITY.

KYZ001>023-026-027-061>063-070>075-070200-
WESTERN AND SOUTH CENTRAL KENTUCKY

CITY           SKY/WX    TMP DP  RH WIND       PRES   REMARKS
PADUCAH        CLOUDY    43  35  73 N10       30.03R
HENDERSON      CLOUDY    39  34  81 NW8       30.03R WCI  34
OWENSBORO      NOT AVBL
HOPKINSVILLE   CLOUDY    40  36  84 N8        30.01R
BOWLING GREEN  CLOUDY    44  37  76 NW6       30.00R
GLASGOW        NOT AVBL
$$

KYZ024-025-028>034-038-045-046-053-070200-
NORTH CENTRAL KENTUCKY

CITY           SKY/WX    TMP DP  RH WIND       PRES   REMARKS
LOUISVILLE/SDF NOT AVBL
LOUISVILLE/LOU CLOUDY    43  36  76 W10       29.97R
FORT KNOX      CLOUDY    41  36  84 W10       29.95S
$$

KYZ035>037-039>044-047>052-055>060-089>105-070200-
NORTHEAST KENTUCKY

CITY           SKY/WX    TMP DP  RH WIND       PRES   REMARKS
LEXINGTON      CLOUDY    44  40  85 W9        29.93R
COVINGTON      CLOUDY    41  34  76 NW21G29   29.91R
FRANKFORT      MOCLDY    44  36  73 W10       29.93R
$$

KYZ054-064>069-076>088-106>120-070200-
SOUTHEAST KENTUCKY

CITY           SKY/WX    TMP DP  RH WIND       PRES   REMARKS
JACKSON        CLOUDY    45  42  89 W9G16     29.90R
LONDON         CLOUDY    45  42  89 NW8       29.93R
SOMERSET       NOT AVBL
MIDDLESBORO    NOT AVBL
MONTICELLO     CLOUDY    45  43  93 NW8       29.99R
$$





USA.gov is the U.S. government's official web portal to all federal, state and local government web resources and services.